Location: Cheyres
(46.8153°N, 6.7877°E)
Time: 13:35:36
(UTC+00:00)

deb Kosmos-1763 - Pass Details

Date: 11 May 2021
Orbit: 447 x 457 km, 74.0° (Epoch: 19 June)

Event Time Altitude Azimuth Distance (km) Brightness Sun altitude
Rises 20:42:37 0° 340° (NNW) 2,486 9.1 -15.0°
Reaches altitude 10° 20:44:44 10° 343° (NNW) 1,610 7.8 -15.3°
Maximum altitude 20:48:16 68° 67° (ENE) 499 4.0 -15.7°
Enters shadow 20:49:33 36° 139° (SE) 749 4.4 -15.8°
